Location: Morisset
(33.1080°S, 151.4871°E)
Time: 08:16:01
(UTC+00:00)

Okean 2 Rocket - Pass Details

Date: 29 October 2020
Orbit: 618 x 640 km, 82.5° (Epoch: 27 November)

Event Time Altitude Azimuth Distance (km) Brightness Sun altitude
Exits shadow 16:35:17 32° 206° (SSW) 1,114 4.4 -26.8°
Drops below altitude 10° 16:38:00 10° 186° (S) 2,062 6.1 -26.4°
Sets 16:40:20 0° 180° (S) 2,978 7.1 -26.0°
